Location: Newark
(45.2500°N, 7.5833°E)
Time: 16:58:13
(UTC+00:00)

SR - Pass Details

Date: 26 January 2020
Orbit: 575 x 881 km, 66.7° (Epoch: 17 February)

Event Time Altitude Azimuth Distance (km) Brightness Sun altitude
Exits shadow 05:17:44 - 337° (NNW) 2,646 ? -17.5°
Reaches altitude 10° 05:18:17 10° 339° (NNW) 2,453 ? -17.4°
Maximum altitude 05:23:30 37° 46° (NE) 1,225 ? -16.5°
Drops below altitude 10° 05:28:20 10° 113° (ESE) 2,265 ? -15.6°
Sets 05:30:46 0° 122° (ESE) 3,133 ? -15.2°
